Bilbao, Spain

5:11 AM CEST on August 27, 2016 (GMT +0200)
Bilbao

Weather History for LEBB - March, 2013

Change the Weather History Date:

Wednesday, March 6, 2013

  Actual Average Record
Temperature  
Mean Temperature 62 °F -  
Max Temperature 73 °F 61 °F 77 °F (2001)
Min Temperature 51 °F 44 °F 33 °F (2015)
Degree Days  
Heating Degree Days 3    
Growing Degree Days 12 (Base 50)    
Moisture  
Dew Point 46 °F    
Average Humidity 57    
Maximum Humidity 76    
Minimum Humidity 33    
Precipitation  
Precipitation 0.00 in - - ()
Sea Level Pressure  
Sea Level Pressure 29.34 in    
Wind  
Wind Speed 7 mph ()    
Max Wind Speed 18 mph    
Max Gust Speed 23 mph    
Visibility 6.2 miles    
Events      
Averages and records for this station are not official NWS values.
T = Trace of Precipitation, MM = Missing Value Source: Averaged Metar Reports

Daily Weather History Graph

Daily Weather History Graph

Search for Another Location

Airport or City:

Trip Planner

Search our weather history database for the weather conditions in past years. The results will help you decide how hot, cold, wet, or windy it might be!

Date:

Astronomy

Mar. 06, 2013 Rise Set
Actual Time 7:39 AM CET 7:06 PM CET
Civil Twilight 7:10 AM CET 7:35 PM CET
Nautical Twilight 6:37 AM CET 8:08 PM CET
Astronomical Twilight 6:04 AM CET 8:41 PM CET
Moon 3:42 AM CET (3/6) 1:26 PM CET (3/6)
Length of Visible Light 12h 24m
Length of Day
11h 27m
Waning Crescent, 33% of the Moon is Illuminated
Mar 6
Waning Crescent
Mar 11
New
Mar 19
First Quarter
Mar 27
Full
Apr 3
Last Quarter

Hourly Weather History & Observations

Time (CET) Temp. Dew Point Humidity Pressure Visibility Wind Dir Wind Speed Gust Speed Precip Events Conditions
5:00 AM 53.6 °F 44.6 °F 72% 29.33 in - SE 9.2 mph - N/A   Clear
5:30 AM 53.6 °F 44.6 °F 72% 29.33 in - SE 10.4 mph 23.0 mph N/A   Clear
6:00 AM 51.8 °F 44.6 °F 76% 29.33 in - ESE 11.5 mph - N/A   Clear
6:30 AM 53.6 °F 44.6 °F 72% 29.33 in - SSE 11.5 mph - N/A   Clear
7:00 AM 53.6 °F 44.6 °F 72% 29.33 in - ESE 8.1 mph - N/A   Clear
7:30 AM 53.6 °F 44.6 °F 72% 29.30 in - SE 9.2 mph - N/A   Clear
8:00 AM 53.6 °F 44.6 °F 72% 29.30 in - SSE 5.8 mph - N/A   Clear
8:30 AM 53.6 °F 44.6 °F 72% 29.33 in - SE 9.2 mph - N/A   Clear
9:00 AM 55.4 °F 46.4 °F 72% 29.33 in - SE 3.5 mph - N/A   Clear
9:30 AM 59.0 °F 46.4 °F 63% 29.33 in - SE 3.5 mph - N/A   Clear
10:00 AM 60.8 °F 46.4 °F 59% 29.33 in - SE 5.8 mph - N/A   Clear
10:30 AM 62.6 °F 46.4 °F 55% 29.33 in - South 3.5 mph - N/A   Clear
11:00 AM 64.4 °F 46.4 °F 52% 29.33 in - Variable 4.6 mph - N/A   Clear
11:30 AM 64.4 °F 44.6 °F 49% 29.33 in - WSW 6.9 mph - N/A   Clear
12:00 PM 64.4 °F 44.6 °F 49% 29.33 in - West 6.9 mph - N/A   Clear
12:30 PM 66.2 °F 44.6 °F 46% 29.33 in 6.2 mi West 8.1 mph - N/A   Partly Cloudy
1:00 PM 68.0 °F 44.6 °F 43% 29.33 in 6.2 mi WSW 10.4 mph - N/A   Partly Cloudy
1:30 PM 68.0 °F 44.6 °F 43% 29.33 in 6.2 mi WSW 11.5 mph - N/A   Partly Cloudy
2:00 PM 69.8 °F 42.8 °F 38% 29.30 in 6.2 mi SW 12.7 mph - N/A   Partly Cloudy
2:30 PM 69.8 °F 42.8 °F 38% 29.30 in 6.2 mi WSW 8.1 mph - N/A   Partly Cloudy
3:00 PM 73.4 °F 42.8 °F 33% 29.30 in 6.2 mi West 9.2 mph - N/A   Partly Cloudy
3:30 PM 71.6 °F 42.8 °F 35% 29.30 in 6.2 mi SW 8.1 mph - N/A   Partly Cloudy
4:00 PM 69.8 °F 44.6 °F 40% 29.30 in 6.2 mi West 9.2 mph - N/A   Partly Cloudy
4:30 PM 68.0 °F 46.4 °F 46% 29.30 in 6.2 mi WNW 5.8 mph - N/A   Partly Cloudy
5:00 PM 68.0 °F 48.2 °F 49% 29.30 in 6.2 mi WNW 4.6 mph - N/A   Partly Cloudy
5:30 PM 68.0 °F 46.4 °F 46% 29.30 in 6.2 mi WNW 3.5 mph - N/A   Partly Cloudy
6:00 PM 64.4 °F 50.0 °F 59% 29.30 in 6.2 mi NW 4.6 mph - N/A   Partly Cloudy
6:30 PM 62.6 °F 46.4 °F 55% 29.33 in 6.2 mi WNW 4.6 mph - N/A   Partly Cloudy
7:00 PM 60.8 °F 46.4 °F 59% 29.33 in 6.2 mi Variable 2.3 mph - N/A   Partly Cloudy
7:30 PM 59.0 °F 48.2 °F 67% 29.36 in 6.2 mi Variable 2.3 mph - N/A   Partly Cloudy
8:00 PM 60.8 °F 48.2 °F 63% 29.36 in 6.2 mi Calm Calm - N/A   Partly Cloudy
8:30 PM 64.4 °F 44.6 °F 49% 29.39 in 6.2 mi Variable 2.3 mph - N/A   Partly Cloudy
9:00 PM 64.4 °F 44.6 °F 49% 29.39 in 6.2 mi SW 6.9 mph - N/A   Partly Cloudy
9:30 PM 64.4 °F 46.4 °F 52% 29.42 in 6.2 mi WSW 12.7 mph - N/A   Scattered Clouds
10:00 PM 59.0 °F 46.4 °F 63% 29.42 in 6.2 mi NW 18.4 mph - N/A   Scattered Clouds
10:30 PM 57.2 °F 46.4 °F 67% 29.44 in 6.2 mi NW 15.0 mph - N/A   Scattered Clouds
11:00 PM 55.4 °F 46.4 °F 72% 29.44 in 6.2 mi NW 10.4 mph - N/A   Scattered Clouds
11:30 PM 55.4 °F 46.4 °F 72% 29.44 in 6.2 mi NW 4.6 mph - N/A   Scattered Clouds